User: anonymous   Login
Location: Oak Glen
(34.0495°N, 116.9470°E)
Time: 00:53:20
(UTC-07:00)
Language:

Vanguard 2 Rocket - Orbit

View from above orbital plane
View from above orbital plane
View from above satellite
View from above satellite

Ground track
Ground track

The orbit data is extracted from the following two-line orbital elements,

1 00012U 59001B   18173.82979144  .00000192  00000-0  92281-4 0  9990
2 00012  32.9103   9.5687 1667725 221.2415 124.9637 11.44243647439418
Epoch (UTC): 22 June 2018 19:54:53
Eccentricity: 0.1667725
inclination: 32.9103°
perigee height: 553 km
apogee height: 3328 km
right ascension of ascending node: 9.5687°
argument of perigee: 221.2415°
revolutions per day: 11.44243647
mean anomaly at epoch: 124.9637°
orbit number at epoch: 43941

The dashed part of the orbit path shows where the satellite is in the earth's shadow,  

DLR